Location: Unspecified
(0.0000°N, 0.0000°E)
Time: 18:51:43
(UTC+00:00)

S-56A Canister/Altair - Pass Details

Date: 24 November 2019
Orbit: 633 x 2499 km, 38.9° (Epoch: 06 December)

Event Time Altitude Azimuth Distance (km) Brightness Sun altitude
Rises 14:26:13 0° 265° (W) 6,171 12.8 45.9°
Reaches altitude 10° 14:32:05 10° 279° (W) 5,076 12.4 44.6°
Maximum altitude 14:41:26 20° 320° (NW) 3,955 11.5 42.6°
Drops below altitude 10° 14:49:28 10° 3° (N) 4,252 11.2 40.8°
Sets 14:53:50 0° 20° (NNE) 4,917 11.3 39.9°
